Location: Bad Salzschlirf
(50.3750°N, 9.3000°E)
Time: 05:38:16
(UTC+02:00)

ISS - Pass Details

Date: 30 March 2020
Orbit: 417 x 423 km, 51.6° (Epoch: 29 March)

Event Time Altitude Azimuth Distance (km) Brightness Sun altitude
Rises 22:31:50 0° 286° (WNW) 2,362 1.1 -23.7°
Reaches altitude 10° 22:34:05 10° 275° (W) 1,496 -0.3 -24.0°
Enters shadow 22:35:41 22° 255° (WSW) 977 -1.6 -24.2°
